Data for 09/30/2017

Time Sea-Level Adjusted Pressure Absolute Pressure Temperature Relative Humidity Dew Point   
(mb) (inHg) (mb) (inHg) (C) (F) (%) (C) (F)
00:05 1015 29.97 844 24.92 10.4 50.6 50 0.3 32.6
00:10 1015 29.97 844 24.92 10.3 50.6 49 0 32.1
00:15 1015 29.97 844 24.92 10.5 50.9 49 0.2 32.3
00:20 1015 29.97 844 24.92 10.2 50.4 51 0.6 33.1
00:25 1015 29.97 844 24.92 9.8 49.6 52 0.5 32.9
00:30 1015 29.97 844 24.92 9.7 49.4 52 0.4 32.8
00:35 1015 29.97 844 24.92 9.7 49.4 52 0.4 32.7
00:40 1015 29.97 844 24.92 9.6 49.3 51 -0.1 31.9
00:45 1015 29.97 844 24.92 9.9 49.8 50 0.1 32.1
00:50 1015 29.97 844 24.92 10 50.1 51 0.5 32.9
00:55 1015 29.97 844 24.92 9.7 49.4 54 0.8 33.5
01:00 1015 29.97 844 24.92 9.9 49.7 47 -1 30.3
01:05 1015 29.97 844 24.92 10.5 50.8 48 -0 32
01:10 1015 29.97 844 24.92 10.5 50.9 48 0 32
01:15 1015 29.97 844 24.92 10 50.1 52 0.6 33
01:20 1015 29.97 844 24.92 9.5 49.1 55 0.9 33.7
01:25 1015 29.97 844 24.92 8.9 47.9 56 0.6 33
01:30 1015 29.97 844 24.92 8.7 47.7 56 0.5 32.8
01:35 1015 29.97 844 24.92 8.8 47.9 54 0 32
01:40 1015 29.97 844 24.92 9.3 48.7 51 -0.4 31.3
01:45 1015 29.97 844 24.92 9.7 49.4 49 -0.6 31
01:50 1015 29.97 844 24.92 9.8 49.7 50 -0 32
01:55 1015 29.97 844 24.92 9.6 49.2 51 -0 31.9
02:00 1015 29.97 844 24.92 9.4 49 51 -0.1 31.9
02:05 1015 29.97 844 24.92 9.5 49.1 51 -0.1 31.8
02:10 1015 29.97 844 24.92 9.5 49.1 51 0 32
02:15 1015 29.97 844 24.92 9.4 49 52 0 32
02:20 1015 29.97 844 24.92 9.3 48.7 53 0.3 32.5
02:25 1015 29.97 844 24.92 9 48.3 54 0.2 32.3
02:30 1015 29.97 844 24.92 9 48.2 54 0.3 32.6
02:35 1015 29.97 844 24.92 8.8 47.9 57 0.7 33.2
02:40 1015 29.97 844 24.92 8.6 47.5 56 0.4 32.8
02:45 1015 29.97 844 24.92 8.6 47.5 55 0.1 32.1
02:50 1015 29.97 844 24.92 8.8 47.8 55 0.1 32.3
02:55 1015 29.97 844 24.92 8.9 48.1 54 0.2 32.4
03:00 1015 29.97 844 24.92 9.1 48.3 53 0 32
03:05 1015 29.97 844 24.92 9.2 48.5 53 0.1 32.2
03:10 1015 29.97 844 24.92 9.3 48.7 53 0.1 32.2
03:15 1015 29.97 844 24.92 9.3 48.7 53 0.3 32.5
03:20 1015 29.97 844 24.92 9.2 48.6 54 0.5 33
03:25 1015 29.97 844 24.92 9.2 48.5 54 0.4 32.7
03:30 1015 29.97 844 24.92 9.2 48.6 53 0.2 32.4
03:35 1015 29.97 844 24.92 9.3 48.7 54 0.4 32.7
03:40 1015 29.97 844 24.92 9.2 48.5 55 0.7 33.3
03:45 1015 29.97 844 24.92 9.2 48.5 55 0.7 33.2
03:50 1015 29.97 844 24.92 9.2 48.6 54 0.4 32.7
03:55 1015 29.97 844 24.92 9.4 48.8 54 0.5 32.8
04:00 1015 29.97 844 24.92 9.4 48.9 53 0.4 32.7
04:05 1015 29.97 844 24.92 9.6 49.2 54 0.7 33.3
04:10 1015 29.97 844 24.92 9.4 49 53 0.3 32.5
04:15 1015 29.97 844 24.92 9.8 49.6 52 0.5 32.9
04:20 1015 29.97 844 24.92 9.8 49.7 52 0.4 32.7
04:25 1015 29.97 844 24.92 9.8 49.6 52 0.5 33
04:30 1015 29.97 844 24.92 9.7 49.4 53 0.6 33
04:35 1014 29.94 844 24.92 9.7 49.4 52 0.2 32.4
04:40 1014 29.94 844 24.92 9.7 49.5 52 0.3 32.6
04:45 1015 29.97 844 24.92 9.6 49.3 53 0.6 33.1
04:50 1014 29.94 844 24.92 9.5 49.1 52 0.2 32.3
04:55 1014 29.94 844 24.92 9.7 49.5 51 0.1 32.3
05:00 1014 29.94 844 24.92 9.8 49.6 53 0.8 33.5
05:05 1014 29.94 844 24.92 9.3 48.7 54 0.6 33.1
05:10 1014 29.94 844 24.92 9.2 48.5 54 0.5 32.9
05:15 1014 29.94 844 24.92 9.3 48.8 52 0.1 32.3
05:20 1014 29.94 843 24.89 9.4 48.9 55 0.8 33.4
05:25 1014 29.94 843 24.89 9.1 48.4 55 0.7 33.2
05:30 1014 29.94 844 24.92 9 48.1 57 0.9 33.7
05:35 1014 29.94 844 24.92 8.9 48 58 1 33.8
05:40 1014 29.94 844 24.92 8.9 48 57 0.8 33.4
05:45 1014 29.94 844 24.92 9.1 48.3 58 1.3 34.3
05:50 1014 29.94 844 24.92 8.7 47.7 59 1.2 34.2
05:55 1014 29.94 844 24.92 8.5 47.2 59 1 33.9
06:00 1014 29.94 843 24.89 8.3 47 60 1.1 34
06:05 1014 29.94 843 24.89 8.4 47.1 59 0.9 33.7
06:10 1014 29.94 843 24.89 8.4 47 59 0.8 33.5
06:15 1014 29.94 843 24.89 8.5 47.3 58 0.8 33.5
06:20 1014 29.94 843 24.89 8.4 47.1 60 1.1 34
06:25 1014 29.94 843 24.89 8.5 47.2 58 0.8 33.5
06:30 1014 29.94 843 24.89 8.4 47.1 59 0.9 33.7
06:35 1014 29.94 843 24.89 8.3 46.9 57 0.4 32.7
06:40 1014 29.94 843 24.89 8.7 47.7 56 0.5 32.9
06:45 1014 29.94 843 24.89 8.9 48 55 0.5 32.9
06:50 1014 29.94 843 24.89 8.9 48 56 0.6 33.2
06:55 1014 29.94 843 24.89 8.7 47.7 57 0.7 33.2
07:00 1014 29.94 843 24.89 8.7 47.7 55 0.3 32.5
07:05 1014 29.94 843 24.89 8.8 47.9 55 0.4 32.7
07:10 1014 29.94 843 24.89 9.3 48.7 53 0.3 32.5
07:15 1014 29.94 843 24.89 9.2 48.5 56 1 33.8
07:20 1014 29.94 843 24.89 8.9 48.1 57 0.9 33.7
07:25 1014 29.94 843 24.89 9 48.3 56 0.8 33.5
07:30 1014 29.94 843 24.89 9.5 49.1 51 -0.1 31.9
07:35 1014 29.94 843 24.89 10.1 50.1 51 0.3 32.6
07:40 1014 29.94 843 24.89 10.1 50.1 54 1.1 34
07:45 1014 29.94 843 24.89 9.8 49.7 54 1.1 34
07:50 1014 29.94 843 24.89 9.9 49.7 55 1.2 34.2
07:55 1014 29.94 843 24.89 10 50 56 1.6 34.8
08:00 1014 29.94 843 24.89 10.7 51.2 54 1.7 35
08:05 1014 29.94 843 24.89 11.2 52.2 51 1.6 34.9
08:10 1014 29.94 843 24.89 11.8 53.2 49 1.4 34.5
08:15 1014 29.94 843 24.89 12.3 54.1 47 1.2 34.2
08:20 1014 29.94 843 24.89 12.5 54.6 47 1.6 34.9
08:25 1014 29.94 843 24.89 12.7 54.8 47 1.7 35
08:30 1014 29.94 843 24.89 12.6 54.7 46 1.3 34.3
08:35 1014 29.94 843 24.89 12.2 54 47 1.3 34.4
08:40 1014 29.94 843 24.89 12.2 54 49 1.8 35.2
08:45 1014 29.94 843 24.89 12.2 54 50 2 35.7
08:50 1014 29.94 843 24.89 12.6 54.7 47 1.6 35
08:55 1014 29.94 843 24.89 12.9 55.3 47 2 35.7
09:00 1014 29.94 843 24.89 13.3 55.9 43 1.1 33.9
09:05 1014 29.94 843 24.89 13.8 56.9 40 0.6 33.1
09:10 1014 29.94 843 24.89 14 57.2 41 1.1 33.9
09:15 1014 29.94 843 24.89 14.1 57.4 41 1.1 34
09:20 1014 29.94 843 24.89 14.7 58.5 38 0.5 32.8
09:25 1014 29.94 843 24.89 14.8 58.7 38 0.8 33.4
09:30 1014 29.94 843 24.89 14.9 58.9 39 1.3 34.4
09:35 1014 29.94 843 24.89 15.2 59.4 41 2 35.5
09:40 1014 29.94 843 24.89 15.1 59.1 41 2 35.7
09:45 1014 29.94 843 24.89 15.1 59.2 43 2.6 36.6
09:50 1014 29.94 843 24.89 14.9 58.8 44 2.7 36.8
09:55 1014 29.94 843 24.89 14.2 57.6 45 2.6 36.6
10:00 1014 29.94 843 24.89 13.8 56.8 45 2 35.7
10:05 1014 29.94 843 24.89 14.1 57.4 43 1.9 35.3
10:10 1014 29.94 843 24.89 14.3 57.8 42 1.7 35
10:15 1014 29.94 843 24.89 14.7 58.4 39 1 33.8
10:20 1014 29.94 843 24.89 15 58.9 39 1.2 34.2
10:25 1014 29.94 843 24.89 15.1 59.1 38 1 33.9
10:30 1014 29.94 843 24.89 14.7 58.5 38 0.8 33.4
10:35 1014 29.94 843 24.89 14.5 58.1 39 0.7 33.3
10:40 1014 29.94 843 24.89 14.8 58.6 39 1.2 34.2
10:45 1014 29.94 843 24.89 15.2 59.3 37 0.5 32.9
10:50 1014 29.94 843 24.89 15.8 60.5 36 0.7 33.3
10:55 1014 29.94 843 24.89 15.6 60.1 37 1.3 34.3
11:00 1014 29.94 843 24.89 15.5 59.9 38 1.4 34.5
11:05 1014 29.94 843 24.89 15.5 59.9 38 1.4 34.5
11:10 1014 29.94 843 24.89 15.6 60.1 37 1.2 34.2
11:15 1014 29.94 843 24.89 16.4 61.5 34 0.5 33
11:20 1014 29.94 843 24.89 17.2 63 34 1.3 34.3
11:25 1014 29.94 843 24.89 17.5 63.4 33 0.9 33.7
11:30 1014 29.94 843 24.89 17.2 63 36 2 35.7
11:35 1014 29.94 843 24.89 16.1 61.1 37 1.4 34.6
11:40 1013 29.91 843 24.89 16.2 61.1 36 1 33.9
11:45 1013 29.91 843 24.89 15.6 60.1 37 1.2 34.2
11:50 1013 29.91 843 24.89 15.9 60.7 37 1.2 34.2
11:55 1013 29.91 842 24.86 16.1 60.9 37 1.4 34.5
12:00 1013 29.91 842 24.86 16 60.8 37 1.3 34.4
12:05 1013 29.91 842 24.86 16.2 61.2 37 1.5 34.6
12:10 1013 29.91 842 24.86 16.4 61.5 36 1.5 34.7
12:15 1013 29.91 842 24.86 16.4 61.6 35 1.2 34.1
12:20 1013 29.91 842 24.86 16.8 62.3 37 2.1 35.7
12:25 1013 29.91 842 24.86 16.3 61.3 37 1.8 35.2
12:30 1013 29.91 842 24.86 16.3 61.3 37 1.8 35.2
12:35 1013 29.91 842 24.86 16.4 61.5 37 1.8 35.3
12:40 1013 29.91 842 24.86 16.5 61.7 37 2 35.7
12:45 1013 29.91 842 24.86 16.6 61.8 38 2.4 36.3
12:50 1013 29.91 842 24.86 16.6 61.9 38 2.2 35.9
12:55 1013 29.91 842 24.86 16.6 61.8 38 2.2 35.9
13:00 1013 29.91 842 24.86 16.5 61.7 38 2.4 36.2
13:05 1013 29.91 842 24.86 16.1 61.1 42 3.4 38.1
13:10 1013 29.91 842 24.86 15.3 59.5 43 3 37.4
13:15 1013 29.91 842 24.86 14.9 58.8 46 3.4 38.1
13:20 1013 29.91 842 24.86 14.7 58.5 47 3.6 38.5
13:25 1013 29.91 842 24.86 14.7 58.5 48 3.8 38.9
13:30 1013 29.91 842 24.86 14.6 58.3 48 3.9 39.1
13:35 1013 29.91 842 24.86 14.8 58.6 46 3.4 38.1
13:40 1013 29.91 842 24.86 14.9 58.8 46 3.5 38.2
13:45 1013 29.91 842 24.86 14.6 58.3 46 3.3 37.9
13:50 1013 29.91 842 24.86 14.9 58.8 45 3.3 37.9
13:55 1013 29.91 842 24.86 14.8 58.6 44 2.8 37
14:00 1013 29.91 842 24.86 14.7 58.5 45 2.9 37.3
14:05 1013 29.91 842 24.86 14.7 58.4 45 2.9 37.2
14:10 1013 29.91 842 24.86 14.5 58.1 48 3.7 38.6
14:15 1013 29.91 842 24.86 14.2 57.5 52 4.5 40.1
14:20 1013 29.91 842 24.86 14.1 57.4 53 4.7 40.4
14:25 1013 29.91 842 24.86 13.7 56.7 52 4.1 39.3
14:30 1013 29.91 842 24.86 13.6 56.5 54 4.5 40
14:35 1013 29.91 842 24.86 13.4 56.2 56 4.9 40.9
14:40 1013 29.91 842 24.86 12.8 55.1 65 6.5 43.8
14:45 1013 29.91 842 24.86 12.2 54 68 6.4 43.6
14:50 1013 29.91 842 24.86 11.6 52.9 71 6.7 44
14:55 1013 29.91 842 24.86 10.9 51.6 74 6.4 43.5
15:00 1013 29.91 842 24.86 10.5 51 76 6.4 43.6
15:05 1013 29.91 843 24.89 10.3 50.5 78 6.7 44
15:10 1013 29.91 843 24.89 10 50.1 80 6.7 44.1
15:15 1013 29.91 843 24.89 9.7 49.5 79 6.4 43.4
15:20 1013 29.91 843 24.89 9.5 49 81 6.4 43.5
15:25 1013 29.91 843 24.89 9.4 48.8 83 6.6 43.9
15:30 1013 29.91 843 24.89 9.2 48.5 83 6.5 43.8
15:35 1013 29.91 843 24.89 9.1 48.3 85 6.7 44.1
15:40 1013 29.91 843 24.89 8.9 48 84 6.4 43.5
15:45 1013 29.91 843 24.89 8.7 47.6 82 5.8 42.4
15:50 1013 29.91 843 24.89 8.4 47.2 81 5.3 41.6
15:55 1013 29.91 843 24.89 8.2 46.7 83 5.5 41.9
16:00 1014 29.94 843 24.89 8.1 46.6 83 5.4 41.7
16:05 1014 29.94 843 24.89 8 46.3 83 5.3 41.5
16:10 1014 29.94 843 24.89 7.8 46.1 84 5.2 41.4
16:15 1014 29.94 843 24.89 7.7 45.9 85 5.4 41.7
16:20 1014 29.94 843 24.89 7.7 45.8 85 5.2 41.4
16:25 1014 29.94 843 24.89 7.5 45.5 86 5.3 41.5
16:30 1014 29.94 843 24.89 7.3 45.2 88 5.4 41.8
16:35 1014 29.94 843 24.89 7.4 45.3 88 5.6 42
16:40 1014 29.94 843 24.89 7.4 45.3 88 5.5 42
16:45 1014 29.94 843 24.89 7.3 45.2 89 5.5 42
16:50 1014 29.94 843 24.89 7.3 45.1 89 5.6 42.1
16:55 1014 29.94 843 24.89 7.4 45.3 90 5.8 42.4
17:00 1014 29.94 843 24.89 7.4 45.3 89 5.8 42.4
17:05 1014 29.94 843 24.89 7.3 45.2 89 5.7 42.3
17:10 1014 29.94 844 24.92 7.4 45.4 89 5.7 42.3
17:15 1014 29.94 844 24.92 7.2 44.9 88 5.4 41.7
17:20 1014 29.94 844 24.92 6.9 44.4 87 5 40.9
17:25 1015 29.97 844 24.92 6.6 43.9 88 4.7 40.5
17:30 1015 29.97 844 24.92 6.5 43.7 87 4.5 40.2
17:35 1015 29.97 844 24.92 6.5 43.8 86 4.4 39.9
17:40 1015 29.97 844 24.92 6.6 43.9 87 4.6 40.2
17:45 1015 29.97 844 24.92 6.7 44 83 4 39.3
17:50 1015 29.97 844 24.92 6.8 44.2 84 4.2 39.6
17:55 1015 29.97 844 24.92 6.7 44.1 82 3.9 39
18:00 1015 29.97 844 24.92 6.7 44.1 82 3.8 38.9
18:05 1015 29.97 844 24.92 6.7 44.1 80 3.5 38.3
18:10 1015 29.97 844 24.92 6.7 44 80 3.4 38.2
18:15 1015 29.97 844 24.92 6.6 43.8 80 3.3 37.9
18:20 1015 29.97 844 24.92 6.5 43.7 79 3.1 37.6
18:25 1015 29.97 844 24.92 6.4 43.6 80 3.2 37.8
18:30 1015 29.97 844 24.92 6.4 43.6 79 3 37.4
18:35 1015 29.97 844 24.92 6.5 43.6 78 2.9 37.2
18:40 1015 29.97 844 24.92 6.5 43.6 79 3 37.5
18:45 1015 29.97 844 24.92 6.2 43.2 82 3.4 38.2
18:50 1015 29.97 844 24.92 6.1 43 81 3.1 37.6
18:55 1014 29.94 844 24.92 6.3 43.3 79 3 37.3
19:00 1014 29.94 844 24.92 6.4 43.5 79 3.1 37.6
19:05 1014 29.94 844 24.92 6.4 43.6 78 2.9 37.2
19:10 1014 29.94 844 24.92 6.5 43.8 77 2.8 37
19:15 1015 29.97 844 24.92 6.7 44 76 2.7 36.9
19:20 1015 29.97 844 24.92 6.6 43.9 77 2.9 37.3
19:25 1014 29.94 844 24.92 6.5 43.7 79 3.2 37.7
19:30 1014 29.94 844 24.92 6.2 43.2 81 3.2 37.8
19:35 1015 29.97 844 24.92 6.1 42.9 82 3.3 37.9
19:40 1015 29.97 844 24.92 6.1 43 82 3.2 37.8
19:45 1015 29.97 844 24.92 6.2 43.2 80 3.1 37.6
19:50 1015 29.97 844 24.92 6.4 43.6 79 3 37.3
19:55 1015 29.97 844 24.92 6.5 43.7 78 3 37.4
20:00 1015 29.97 844 24.92 6.5 43.7 80 3.2 37.8
20:05 1015 29.97 844 24.92 6.5 43.7 80 3.3 38
20:10 1015 29.97 844 24.92 6.5 43.6 80 3.3 37.9
20:15 1015 29.97 844 24.92 6.5 43.7 80 3.3 38
20:20 1015 29.97 844 24.92 6.4 43.5 82 3.6 38.5
20:25 1015 29.97 844 24.92 6.4 43.5 83 3.7 38.6
20:30 1015 29.97 844 24.92 6.3 43.3 85 3.9 39.1
20:35 1015 29.97 844 24.92 6.3 43.3 85 4 39.2
20:40 1015 29.97 844 24.92 6.2 43.2 85 4 39.1
20:45 1015 29.97 844 24.92 6.3 43.4 86 4.2 39.5
20:50 1015 29.97 844 24.92 6.4 43.5 85 4 39.2
20:55 1015 29.97 844 24.92 6.4 43.5 84 3.9 39.1
21:00 1015 29.97 844 24.92 6.3 43.3 84 3.8 38.8
21:05 1015 29.97 844 24.92 6.3 43.4 84 3.9 39
21:10 1015 29.97 844 24.92 6.4 43.5 85 4.1 39.4
21:15 1015 29.97 844 24.92 6.4 43.6 85 4.1 39.5
21:20 1015 29.97 844 24.92 6.5 43.7 86 4.3 39.7
21:25 1015 29.97 844 24.92 6.4 43.5 86 4.2 39.5
21:30 1015 29.97 844 24.92 6.3 43.4 84 3.9 39
21:35 1015 29.97 844 24.92 6.5 43.7 82 3.7 38.6
21:40 1015 29.97 844 24.92 6.6 43.9 82 3.7 38.7
21:45 1015 29.97 844 24.92 6.5 43.8 82 3.8 38.8
21:50 1015 29.97 844 24.92 6.3 43.4 82 3.6 38.4
21:55 1015 29.97 844 24.92 6.3 43.4 81 3.4 38
22:00 1015 29.97 844 24.92 6.2 43.1 81 3.2 37.8
22:05 1015 29.97 844 24.92 6 42.8 81 2.9 37.3
22:10 1015 29.97 844 24.92 6 42.7 80 2.7 36.9
22:15 1015 29.97 844 24.92 5.9 42.7 79 2.6 36.6
22:20 1015 29.97 844 24.92 6 42.8 78 2.5 36.5
22:25 1015 29.97 844 24.92 6.1 42.9 76 2.3 36.1
22:30 1015 29.97 845 24.95 6 42.9 75 2 35.6
22:35 1015 29.97 845 24.95 6 42.8 75 2 35.6
22:40 1015 29.97 845 24.95 6 42.8 75 1.8 35.3
22:45 1015 29.97 844 24.92 6.1 42.9 73 1.6 34.9
22:50 1015 29.97 844 24.92 6.1 43 73 1.7 35
22:55 1015 29.97 844 24.92 6.1 43 74 1.9 35.4
23:00 1015 29.97 844 24.92 6.1 43 72 1.5 34.6
23:05 1015 29.97 844 24.92 6.2 43.1 72 1.5 34.7
23:10 1015 29.97 844 24.92 6.1 43 72 1.4 34.5
23:15 1015 29.97 844 24.92 6.2 43.1 70 1.2 34.1
23:20 1015 29.97 844 24.92 6.2 43.2 70 1.2 34.2
23:25 1015 29.97 844 24.92 6.2 43.1 70 1.2 34.1
23:30 1015 29.97 844 24.92 6 42.8 74 1.7 35
23:35 1015 29.97 844 24.92 5.8 42.4 73 1.3 34.4
23:40 1015 29.97 844 24.92 5.7 42.3 72 1.1 34.1
23:45 1015 29.97 844 24.92 5.7 42.3 70 0.8 33.4
23:50 1015 29.97 844 24.92 5.7 42.2 68 0.3 32.5
23:55 1015 29.97 844 24.92 5.7 42.3 66 -0.1 31.9
24:00 1015 29.97 844 24.92 5.7 42.3 67 0 32